Regional Weather Roundup
Issued by NWS

Home | Current Version | Previous Version | Graphics & Text | Print | Product List | Glossary On
Versions: 1 2 3 4 5 6 7 8 9 10 11 12 13 14 15 16 17 18 19 20 21 22 23 24 25 26 27 28 29 30 31 32 33 34 35 36 37 38 39 40 41 42 43 44 45 46 47 48 49 50
000
ASUS43 KBIS 300810
RWRND

NORTH DAKOTA REGIONAL WEATHER ROUNDUP
NATIONAL WEATHER SERVICE BISMARCK ND
300 AM CDT TUE JUN 30 2015

NOTE: "FAIR" INDICATES FEW OR NO CLOUDS BELOW 12,000 FEET WITH NO
SIGNIFICANT WEATHER AND/OR OBSTRUCTIONS TO VISIBILITY.


NDZ001>003-009>011-017-300900-
NORTHWEST NORTH DAKOTA

CITY           SKY/WX    TMP DP  RH WIND       PRES   REMARKS
WILLISTON      CLOUDY    70  57  63 CALM      29.97S HAZE
MINOT          CLOUDY    67  62  84 E7        29.94R
MINOT AFB      CLOUDY    66  66 100 E6        29.94R
$$

NDZ018>021-031>035-040>046-300900-
SOUTHWEST NORTH DAKOTA

CITY           SKY/WX    TMP DP  RH WIND       PRES   REMARKS
BISMARCK       CLOUDY    69  65  86 SE3       29.94S
DICKINSON      CLOUDY    68  61  78 NE5       29.93F
GARRISON         N/A     70  62  76 E7        29.95S
HETTINGER ARPT CLOUDY    66  61  84 NW3       29.94S
$$

NDZ004>008-012>016-024-026-027-054-300900-
NORTHEAST NORTH DAKOTA

CITY           SKY/WX    TMP DP  RH WIND       PRES   REMARKS
GRAND FORKS    PTCLDY    56  55  97 NW5       29.94S FOG
GRND FRKS AFB  PTCLDY    58  57  95 N5        29.95S
DEVILS LAKE    MOCLDY    61  55  82 E7        29.97F
$$

NDZ022-023-025-028>030-036>039-047>053-300900-
SOUTHEAST NORTH DAKOTA

CITY           SKY/WX    TMP DP  RH WIND       PRES   REMARKS
FARGO          PTCLDY    60  57  89 NE5       29.93S
JAMESTOWN      CLOUDY    64  60  87 E5        29.95F
$$



USA.gov is the U.S. government's official web portal to all federal, state and local government web resources and services.